STARLINK-1714

Last updated on Fri Nov 06 2020 00:02:03 GMT+0000 (Coordinated Universal Time)

1 46562U 20070AG 20310.58343750 -.00016207 00000-0 -17120-3 0 9995 2 46562 53.0026 294.1670 0001118 69.6415 62.2596 15.62799215 1774
UTC large
Height (km)
Speed (km/s)
/
Latitude / Longitude
Inclination (degrees)
Orbital Period (minutes)
Azimuth
Elevation
Range (km)
Doppler Factor

Next 0 passes for location: London (51.5072 / 0.1276)

Sorry there are no passes over London.